[[{"header":{"parameterUnit":"m.s-1","parameterCategory":2,"la1":30.2992,"la2":30.254,"lo1":-89.0895,"lo2":-89.0443,"dy":0.0025,"dx":0.0025,"nx":19,"ny":19,"refTime":"2026-05-21T09:00:00:Z","depth":"0","parameterNumber":2,"parameterNumberName":"U-component_of_CURRENTS"},"data":[0,0,0,0.1455,0.1455,0.143,0.1429,0.1461,0.1462,0,0,0,0,0,0,0,0,0,0,0,0.1466,0.1467,0.1455,0.1455,0.143,0.1429,0.1461,0.1462,0,0,0,0,0,0,0,0,0,0,0,0.1466,0.1467,0.1467,0.1455,0.143,0.1429,0.1461,0.1461,0,0,0,0,0,0,0,0,0,0,0.1476,0.1468,0.1466,0.1467,0.1455,0.143,0.1429,0.146,0.1461,0.1495,0,0.1501,0,0.1489,0.1467,0.1467,0,0,0,0.1442,0.1467,0.1477,0.1467,0.1455,0.143,0.1437,0.146,0.1461,0.1497,0.1501,0.1502,0.149,0.1467,0.1467,0.1567,0.1568,0,0,0.1444,0.1445,0.1477,0.1478,0.1463,0.1438,0.1437,0.146,0.146,0.1501,0.1502,0.149,0.1467,0.1468,0.1567,0.1567,0,0,0,0.1456,0.1446,0.1453,0.1478,0.1472,0.1438,0.1436,0.1458,0.1465,0.1502,0.1491,0.1468,0.1469,0.1566,0.1567,0.1576,0,0,0,0.1456,0.1454,0.1454,0.1452,0.1471,0.1453,0.1434,0.1463,0.1465,0.149,0.1468,0.1469,0.1565,0.1566,0.1574,0.1563,0,0,0,0.1465,0.1454,0.1459,0.1452,0.1448,0.1452,0.1458,0.1463,0.146,0.1467,0.147,0.1565,0.1566,0.1573,0.1561,0.1579,0,0,0,0.1455,0.1463,0.146,0.147,0.1449,0.1463,0.1458,0.1465,0.1472,0.1468,0.1565,0.1567,0.1572,0.156,0.1578,0.1528,0.1528,0,0,0.1459,0.1463,0.1472,0.1469,0.1479,0.1464,0.1484,0.1492,0.1507,0.1559,0.156,0.1575,0.1561,0.1579,0.1605,0.1603,0,0,0,0.147,0.1471,0.1477,0.1482,0.1495,0.1498,0.1503,0.1523,0.1562,0.152,0.1599,0.1591,0.1601,0.157,0.1569,0.1511,0.1573,0.1573,0.1573,0.1433,0.1457,0.1469,0.1496,0.1509,0.1528,0.1546,0.1578,0.1591,0.1621,0.1617,0.166,0.1629,0.1627,0.1569,0.1647,0.1647,0.1647,0.1647,0.1425,0.1433,0.1465,0.1485,0.1512,0.153,0.1588,0.1604,0.1659,0.1658,0.1668,0.1604,0.1626,0.1565,0.1648,0.1648,0.1648,0.1648,0.1648,0.1388,0.14,0.1421,0.1455,0.1481,0.1519,0.155,0.16,0.1656,0.1676,0.1646,0.1645,0.1573,0.1685,0.1685,0.1685,0.1685,0.1685,0.1685,0.1341,0.1369,0.1379,0.1422,0.1434,0.1461,0.1523,0.1555,0.161,0.1647,0.1647,0.1582,0.1671,0.1649,0.1686,0.1686,0.1685,0.1685,0.1685,0.1301,0.1315,0.1328,0.1341,0.1375,0.1372,0.1438,0.1484,0.154,0.1561,0.1546,0.1639,0.1628,0.1628,0.1605,0.1628,0.1628,0.1628,0.1628,0.1265,0.1278,0.1281,0.1287,0.1301,0.1328,0.1302,0.1357,0.1438,0.1462,0.1491,0.1463,0.1468,0.1447,0.1451,0.1424,0.1401,0.1401,0.1401,0.124,0.1248,0.1231,0.1248,0.1263,0.1263,0.121,0.1207,0.1325,0.1388,0.1422,0.1432,0.1388,0.14,0.1365,0.1375,0.1332,0,0]},{"header":{"parameterUnit":"m.s-1","parameterCategory":2,"la1":30.2992,"la2":30.254,"lo1":-89.0895,"lo2":-89.0443,"dy":0.0025,"dx":0.0025,"nx":19,"ny":19,"refTime":"2026-05-21T09:00:00:Z","depth":"0","parameterNumber":3,"parameterNumberName":"V-component_of_CURRENTS"},"data":[0,0,0,0.0487,0.0487,0.0512,0.0512,0.0526,0.0526,0,0,0,0,0,0,0,0,0,0,0,0.0474,0.0474,0.0487,0.0488,0.0512,0.0512,0.0526,0.0526,0,0,0,0,0,0,0,0,0,0,0,0.0474,0.0474,0.0475,0.0488,0.0512,0.0512,0.0526,0.051,0,0,0,0,0,0,0,0,0,0,0.0488,0.048,0.0474,0.0475,0.0488,0.0512,0.0512,0.0509,0.0511,0.0513,0,0.0521,0,0.053,0.0528,0.0528,0,0,0,0.0479,0.0478,0.0489,0.0475,0.0488,0.0512,0.0498,0.051,0.0512,0.0516,0.0521,0.0522,0.053,0.0528,0.0528,0.0574,0.0574,0,0,0.0478,0.0473,0.0488,0.049,0.05,0.0498,0.0499,0.0512,0.0513,0.0521,0.0523,0.053,0.0528,0.0528,0.0573,0.0574,0,0,0,0.048,0.0472,0.0483,0.049,0.0499,0.0499,0.05,0.0512,0.0517,0.0523,0.053,0.0528,0.0528,0.0573,0.0573,0.0603,0,0,0,0.0478,0.0474,0.0482,0.0479,0.0499,0.0508,0.0501,0.0516,0.0518,0.053,0.0528,0.0529,0.0572,0.0573,0.0601,0.0617,0,0,0,0.0472,0.0473,0.0479,0.0479,0.0494,0.0508,0.0513,0.0516,0.0523,0.0528,0.0529,0.0572,0.0573,0.06,0.0614,0.0651,0,0,0,0.0462,0.0468,0.0478,0.0491,0.0494,0.0517,0.0513,0.0528,0.0534,0.0528,0.0572,0.0573,0.0599,0.0613,0.0649,0.0661,0.067,0,0,0.0462,0.0467,0.0476,0.0486,0.0511,0.0513,0.0543,0.0548,0.0547,0.0565,0.0566,0.0602,0.0614,0.065,0.0708,0.0716,0,0,0,0.0471,0.0477,0.0487,0.0505,0.0525,0.0553,0.0559,0.0572,0.0595,0.0557,0.061,0.0617,0.0639,0.0643,0.0649,0.0656,0.0577,0.0577,0.0577,0.0462,0.0479,0.0497,0.0523,0.0545,0.0581,0.0607,0.0627,0.0616,0.0637,0.0647,0.0703,0.0707,0.0713,0.072,0.0653,0.0653,0.0653,0.0653,0.046,0.047,0.0505,0.0525,0.0569,0.0597,0.0655,0.0665,0.0713,0.0689,0.0709,0.0681,0.0722,0.0727,0.0655,0.0655,0.0655,0.0654,0.0654,0.0436,0.0448,0.0462,0.0505,0.0557,0.061,0.0671,0.0707,0.074,0.0767,0.0774,0.0774,0.0774,0.0777,0.0778,0.0778,0.0778,0.0778,0.0778,0.041,0.0428,0.0444,0.049,0.0524,0.0586,0.0678,0.0728,0.0797,0.0815,0.0815,0.0799,0.0741,0.0731,0.0782,0.0781,0.0781,0.0781,0.078,0.0391,0.0395,0.0414,0.0439,0.0524,0.0584,0.0667,0.0787,0.0842,0.0884,0.0882,0.0844,0.0839,0.0833,0.0825,0.0897,0.0897,0.0897,0.0897,0.0378,0.0383,0.0406,0.0442,0.0507,0.0589,0.071,0.0842,0.0931,0.0955,0.0935,0.0905,0.09,0.0896,0.0889,0.0881,0.0966,0.0966,0.0966,0.0379,0.0383,0.0391,0.0426,0.0503,0.0598,0.0729,0.0923,0.1009,0.0969,0.0946,0.0944,0.0897,0.0888,0.0876,0.0865,0.085,0,0]}],[{"header":{"parameterUnit":"m.s-1","parameterCategory":2,"la1":30.2992,"la2":30.254,"lo1":-89.0895,"lo2":-89.0443,"dy":0.0025,"dx":0.0025,"nx":19,"ny":19,"refTime":"2026-05-21T09:00:00:Z","depth":"2","parameterNumber":2,"parameterNumberName":"U-component_of_CURRENTS"},"data":[0,0,0,0.1419,0.1419,0.1396,0.1395,0.1433,0.1433,0,0,0,0,0,0,0,0,0,0,0,0.1434,0.1434,0.1419,0.1419,0.1396,0.1395,0.1433,0.1433,0,0,0,0,0,0,0,0,0,0,0,0.1434,0.1434,0.1435,0.1419,0.1396,0.1395,0.1432,0.1431,0,0,0,0,0,0,0,0,0,0,0.1445,0.1442,0.1434,0.1435,0.1419,0.1396,0.1395,0.143,0.1431,0.1466,0,0.1472,0,0.1457,0.1438,0.1438,0,0,0,0.141,0.1441,0.1446,0.1435,0.1419,0.1396,0.1404,0.143,0.1432,0.1467,0.1472,0.1473,0.1458,0.1439,0.1439,0.1526,0.1526,0,0,0.1412,0.1417,0.1445,0.1447,0.1428,0.1405,0.1403,0.143,0.1433,0.1472,0.1473,0.1458,0.1439,0.144,0.1526,0.1526,0,0,0,0.1421,0.1418,0.1421,0.1447,0.1439,0.1404,0.1402,0.1432,0.1436,0.1474,0.1459,0.144,0.1441,0.1525,0.1526,0.1549,0,0,0,0.1422,0.1425,0.1422,0.1423,0.1438,0.1423,0.1403,0.1434,0.1436,0.1459,0.144,0.1441,0.1525,0.1525,0.1547,0.1531,0,0,0,0.1432,0.1425,0.143,0.1424,0.1418,0.1422,0.1426,0.1434,0.1429,0.1439,0.1441,0.1524,0.1525,0.1546,0.153,0.1547,0,0,0,0.1429,0.1433,0.143,0.1437,0.1419,0.1426,0.1426,0.1435,0.1446,0.144,0.1525,0.1526,0.1545,0.1529,0.1546,0.1419,0.1413,0,0,0.1429,0.1433,0.1438,0.1436,0.144,0.1428,0.1444,0.146,0.1473,0.1518,0.1519,0.1547,0.153,0.1547,0.1475,0.1467,0,0,0,0.1436,0.1438,0.1443,0.1444,0.1452,0.1451,0.1462,0.1485,0.1525,0.1485,0.1561,0.1549,0.1559,0.148,0.1475,0.153,0.153,0.153,0.153,0.141,0.1426,0.1435,0.1451,0.1457,0.1477,0.1496,0.153,0.1549,0.1579,0.1578,0.1618,0.1536,0.153,0.1605,0.1605,0.1605,0.1605,0.1605,0.1406,0.1407,0.143,0.1444,0.1458,0.1474,0.1526,0.1553,0.1612,0.1613,0.1623,0.1521,0.1525,0.1607,0.1607,0.1606,0.1606,0.1606,0.1606,0.1376,0.1381,0.1402,0.1422,0.1439,0.1468,0.15,0.1555,0.1612,0.1636,0.1554,0.1552,0.1614,0.1651,0.1651,0.1651,0.1651,0.1651,0.1651,0.1333,0.1357,0.1366,0.1396,0.1403,0.1425,0.1485,0.1509,0.1528,0.1551,0.155,0.1633,0.1632,0.1617,0.1652,0.1652,0.1651,0.1651,0.1651,0.1295,0.1306,0.1317,0.1327,0.1352,0.1338,0.1396,0.1393,0.144,0.1425,0.1505,0.1508,0.1483,0.1485,0.1467,0.1461,0.1461,0.1461,0.1461,0.1257,0.1269,0.1269,0.1273,0.1279,0.1295,0.1244,0.1172,0.1198,0.1122,0.1137,0.1084,0.11,0.105,0.1063,0.1035,0.0917,0.0916,0.0915,0.1232,0.1237,0.1218,0.1234,0.1241,0.1226,0.1139,0.0968,0.0773,0.089,0.1007,0.1431,0.1393,0.1402,0.1358,0.1366,0.1334,0,0]},{"header":{"parameterUnit":"m.s-1","parameterCategory":2,"la1":30.2992,"la2":30.254,"lo1":-89.0895,"lo2":-89.0443,"dy":0.0025,"dx":0.0025,"nx":19,"ny":19,"refTime":"2026-05-21T09:00:00:Z","depth":"2","parameterNumber":3,"parameterNumberName":"V-component_of_CURRENTS"},"data":[0,0,0,0.0327,0.0328,0.0372,0.0372,0.038,0.038,0,0,0,0,0,0,0,0,0,0,0,0.0311,0.0311,0.0326,0.0328,0.0372,0.0372,0.038,0.038,0,0,0,0,0,0,0,0,0,0,0,0.031,0.0311,0.0312,0.0328,0.0372,0.0372,0.038,0.0357,0,0,0,0,0,0,0,0,0,0,0.032,0.032,0.0311,0.0312,0.0328,0.0372,0.0372,0.0356,0.0359,0.0349,0,0.0364,0,0.0376,0.0381,0.0381,0,0,0,0.032,0.0319,0.0327,0.0312,0.0329,0.0372,0.035,0.0358,0.036,0.0352,0.0365,0.0365,0.0376,0.0381,0.0381,0.038,0.038,0,0,0.0318,0.032,0.0325,0.0329,0.035,0.0348,0.0351,0.036,0.0368,0.0365,0.0366,0.0376,0.0381,0.0381,0.038,0.038,0,0,0,0.0316,0.0318,0.0326,0.0328,0.0342,0.035,0.0353,0.0367,0.0369,0.0366,0.0376,0.0381,0.0381,0.038,0.038,0.0435,0,0,0,0.0314,0.0317,0.0326,0.0327,0.0342,0.0363,0.036,0.0369,0.037,0.0376,0.0381,0.0381,0.038,0.038,0.0434,0.0449,0,0,0,0.0307,0.0317,0.0324,0.0327,0.0349,0.0364,0.0366,0.0369,0.0376,0.0381,0.0381,0.038,0.038,0.0432,0.0447,0.0482,0,0,0,0.0303,0.0304,0.0324,0.0332,0.0349,0.0362,0.0367,0.0384,0.039,0.0381,0.038,0.038,0.0432,0.0446,0.048,0.0383,0.0382,0,0,0.0293,0.0303,0.0306,0.0325,0.0343,0.0355,0.0372,0.0387,0.0382,0.0373,0.0373,0.0434,0.0447,0.0481,0.0379,0.0379,0,0,0,0.0295,0.0303,0.0313,0.0333,0.0347,0.0374,0.0383,0.0395,0.0414,0.0388,0.0417,0.0423,0.0444,0.038,0.038,0.038,0.038,0.038,0.038,0.0298,0.0304,0.0317,0.0332,0.0344,0.0385,0.0409,0.0422,0.0418,0.0436,0.0456,0.05,0.0432,0.0432,0.0445,0.0446,0.0446,0.0446,0.0446,0.0296,0.03,0.0322,0.0336,0.0367,0.0385,0.0428,0.0454,0.0499,0.048,0.0498,0.0425,0.0435,0.045,0.0449,0.0449,0.0448,0.0448,0.0448,0.0285,0.0287,0.0305,0.0329,0.0367,0.0405,0.0466,0.0509,0.0538,0.0571,0.0506,0.0503,0.0545,0.0593,0.0593,0.0594,0.0594,0.0594,0.0594,0.027,0.0282,0.0301,0.0329,0.0353,0.0411,0.05,0.0533,0.0547,0.0546,0.0545,0.055,0.0545,0.0552,0.0598,0.0597,0.0597,0.0596,0.0596,0.0255,0.0259,0.0275,0.03,0.0371,0.0413,0.0487,0.0533,0.057,0.0556,0.0525,0.0525,0.0498,0.0495,0.0499,0.0529,0.0529,0.0529,0.0529,0.0241,0.0248,0.0269,0.0304,0.0356,0.042,0.0497,0.0515,0.05,0.0423,0.0428,0.0369,0.0373,0.0335,0.0336,0.0337,0.0324,0.0324,0.0324,0.024,0.0242,0.025,0.029,0.035,0.0423,0.0484,0.052,0.0372,0.032,0.0433,0.0508,0.0429,0.0432,0.038,0.038,0.0382,0,0]}],[{"header":{"parameterUnit":"m.s-1","parameterCategory":2,"la1":30.2992,"la2":30.254,"lo1":-89.0895,"lo2":-89.0443,"dy":0.0025,"dx":0.0025,"nx":19,"ny":19,"refTime":"2026-05-21T09:00:00:Z","depth":"4","parameterNumber":2,"parameterNumberName":"U-component_of_CURRENTS"},"data":[0,0,0,-0.0432,-0.0432,-0.0395,-0.0395,-0.0279,-0.0278,0,0,0,0,0,0,0,0,0,0,0,-0.0428,-0.0428,-0.0432,-0.0432,-0.0396,-0.0395,-0.0279,-0.0278,0,0,0,0,0,0,0,0,0,0,0,-0.0427,-0.0428,-0.0428,-0.0433,-0.0396,-0.0395,-0.0279,-0.0313,0,0,0,0,0,0,0,0,0,0,-0.0353,-0.0361,-0.0428,-0.0428,-0.0433,-0.0396,-0.0395,-0.0315,-0.0311,-0.0291,0,-0.0308,0,-0.0318,-0.0273,-0.0273,0,0,0,-0.0386,-0.0364,-0.0382,-0.0429,-0.0433,-0.0396,-0.0399,-0.0313,-0.0308,-0.0285,-0.0306,-0.0303,-0.0316,-0.0273,-0.0273,-0.0303,-0.0304,0,0,-0.0388,-0.0386,-0.0385,-0.038,-0.0452,-0.0401,-0.0399,-0.031,-0.03,-0.0306,-0.0301,-0.0314,-0.0272,-0.0272,-0.0302,-0.0304,0,0,0,-0.0425,-0.0387,-0.0406,-0.0384,-0.0398,-0.0401,-0.0398,-0.0303,-0.0318,-0.03,-0.0313,-0.0272,-0.0271,-0.0301,-0.0303,-0.0263,0,0,0,-0.0424,-0.0413,-0.0408,-0.04,-0.0401,-0.0358,-0.0392,-0.0323,-0.0315,-0.0313,-0.0272,-0.027,-0.03,-0.0302,-0.0262,-0.0226,0,0,0,-0.0424,-0.0412,-0.0423,-0.0401,-0.0412,-0.036,-0.0367,-0.0321,-0.0325,-0.0273,-0.027,-0.03,-0.0302,-0.0261,-0.0226,-0.0181,0,0,0,-0.04,-0.0405,-0.0423,-0.0434,-0.0413,-0.0435,-0.0367,-0.0342,-0.0304,-0.0272,-0.0301,-0.0303,-0.026,-0.0226,-0.0181,-0.0183,0,0,0,-0.039,-0.0403,-0.0414,-0.0431,-0.045,-0.0435,-0.0424,-0.0335,-0.0333,-0.0314,-0.0314,-0.0262,-0.0226,-0.0181,-0.0312,0,0,0,0,-0.0401,-0.0408,-0.0422,-0.0436,-0.0462,-0.0432,-0.0395,-0.0381,-0.034,-0.0332,-0.0318,-0.0297,-0.0268,-0.0276,-0.0313,-0.0313,-0.0313,-0.0312,-0.0312,-0.0366,-0.0389,-0.0396,-0.0422,-0.043,-0.0423,-0.039,-0.037,-0.0373,-0.037,-0.0305,-0.0301,-0.0316,-0.0364,-0.0364,-0.0364,-0.0364,-0.0364,-0.0364,-0.0358,-0.0369,-0.0368,-0.0379,-0.0373,-0.0365,-0.0353,-0.0339,-0.0305,-0.0335,-0.0309,-0.0288,-0.0361,-0.0362,-0.0362,-0.0363,-0.0363,-0.0363,-0.0363,-0.0357,-0.0358,-0.0356,-0.0342,-0.0314,-0.0315,-0.0281,-0.0273,-0.026,-0.0232,-0.0233,-0.0267,-0.0219,-0.0218,-0.0218,-0.0217,-0.0217,-0.0217,-0.0217,-0.0357,-0.035,-0.0337,-0.0313,-0.0296,-0.0275,-0.0242,-0.0222,-0.0202,-0.0187,-0.0214,-0.0251,-0.0256,-0.0213,-0.0212,-0.0213,-0.0213,-0.0214,-0.0214,-0.037,-0.0358,-0.0345,-0.0326,-0.0291,-0.0271,-0.0239,-0.0179,-0.0137,-0.0106,-0.0159,-0.0163,-0.0164,-0.017,-0.0123,-0.0095,-0.0095,-0.0095,0,-0.0374,-0.0368,-0.0354,-0.0334,-0.0305,-0.0279,-0.0227,-0.019,-0.0141,-0.0139,-0.0152,-0.0215,-0.0217,-0.0226,-0.0231,-0.0181,0,0,0,-0.0372,-0.0374,-0.0366,-0.0351,-0.0316,-0.026,-0.0216,-0.0186,-0.0149,-0.0107,-0.0094,-0.0094,-0.0208,-0.0197,-0.0207,-0.0213,-0.0144,0,0]},{"header":{"parameterUnit":"m.s-1","parameterCategory":2,"la1":30.2992,"la2":30.254,"lo1":-89.0895,"lo2":-89.0443,"dy":0.0025,"dx":0.0025,"nx":19,"ny":19,"refTime":"2026-05-21T09:00:00:Z","depth":"4","parameterNumber":3,"parameterNumberName":"V-component_of_CURRENTS"},"data":[0,0,0,-0.0299,-0.0304,-0.054,-0.0541,-0.0604,-0.0603,0,0,0,0,0,0,0,0,0,0,0,-0.0213,-0.0214,-0.0298,-0.0304,-0.054,-0.0541,-0.0604,-0.0603,0,0,0,0,0,0,0,0,0,0,0,-0.0212,-0.0214,-0.0216,-0.0305,-0.054,-0.0541,-0.0604,-0.0483,0,0,0,0,0,0,0,0,0,0,-0.0283,-0.0249,-0.0213,-0.0216,-0.0307,-0.054,-0.0541,-0.048,-0.049,-0.0431,0,-0.0483,0,-0.0546,-0.0603,-0.0603,0,0,0,-0.0296,-0.0241,-0.0298,-0.0216,-0.0309,-0.0539,-0.0431,-0.0488,-0.0499,-0.0443,-0.0485,-0.049,-0.0547,-0.0603,-0.0603,-0.0539,-0.0538,0,0,-0.0283,-0.0253,-0.0291,-0.0306,-0.0386,-0.0424,-0.0439,-0.0497,-0.0513,-0.0486,-0.0492,-0.0548,-0.0603,-0.0603,-0.0539,-0.0539,0,0,0,-0.0251,-0.0244,-0.0306,-0.0301,-0.0365,-0.0431,-0.0448,-0.0511,-0.0531,-0.0494,-0.0548,-0.0603,-0.0603,-0.054,-0.0539,-0.0492,0,0,0,-0.0243,-0.0227,-0.03,-0.0284,-0.0366,-0.0477,-0.046,-0.0527,-0.0537,-0.0548,-0.0603,-0.0603,-0.0541,-0.054,-0.0495,-0.0451,0,0,0,-0.0199,-0.0222,-0.0254,-0.0282,-0.0389,-0.0478,-0.0504,-0.0532,-0.0568,-0.0603,-0.0603,-0.0541,-0.054,-0.0498,-0.0456,-0.0389,0,0,0,-0.0152,-0.0151,-0.0254,-0.0251,-0.0387,-0.041,-0.0505,-0.0557,-0.0582,-0.0603,-0.0541,-0.0539,-0.0499,-0.0459,-0.0393,-0.0405,0,0,0,-0.0099,-0.0144,-0.013,-0.0226,-0.0212,-0.0376,-0.0358,-0.0465,-0.0532,-0.0505,-0.0506,-0.0494,-0.0457,-0.039,-0.0315,0,0,0,0,-0.0075,-0.008,-0.0085,-0.0124,-0.0175,-0.0245,-0.0363,-0.0402,-0.0471,-0.0547,-0.0476,-0.0453,-0.0413,-0.043,-0.0532,-0.0532,-0.0532,-0.0532,-0.0532,-0.001,-0.0015,0.0012,-0.0018,-0.0042,-0.0155,-0.0195,-0.0277,-0.0359,-0.0392,-0.0403,-0.03,-0.0317,-0.0401,-0.0401,-0.0401,-0.0401,-0.0401,-0.04,0.007,0.0081,0.0063,0.007,0.0011,-0.0021,-0.0077,-0.0167,-0.02,-0.0304,-0.0269,-0.0365,-0.0395,-0.0396,-0.0397,-0.0398,-0.0398,-0.0398,-0.0399,0.0097,0.0107,0.0084,0.0089,0.0056,-0.0011,0.0005,-0.0081,-0.0149,-0.0141,-0.0183,-0.0245,-0.0262,-0.0161,-0.0161,-0.016,-0.016,-0.0159,-0.0159,0.0112,0.0116,0.0116,0.0103,0.0079,0.0049,0.0014,0.0029,-0.0038,-0.0099,-0.015,-0.0219,-0.0226,-0.0246,-0.0151,-0.0153,-0.0154,-0.0154,-0.0155,0.0157,0.0121,0.0159,0.0144,0.0136,0.0122,0.0116,0.0105,0.0132,0.0119,-0.0055,-0.0062,-0.0069,-0.008,-0.0096,0.0047,0.0047,0.0048,0,0.0161,0.016,0.0193,0.0216,0.0221,0.0182,0.0204,0.0207,0.0137,0.0086,0.015,-0.0048,-0.0055,-0.0065,-0.0074,-0.0092,0,0,0,0.0181,0.0194,0.0225,0.0245,0.0241,0.0213,0.0199,0.0173,0.0121,0.0165,0.0054,0.0052,0.0019,-0.0128,-0.0156,-0.0165,-0.0198,0,0]}]]